FW6369 Weather Reports


Display with metric or nautical units.
time (UTC)temp
F
wind
direction
speed
MPH
gust
MPH
rain 1hr
in
rain 24hr
in
rain mn
in
humidity
%
barometer
mb
20260903144603 61 0 0.0 0.0 0.00 0.00 0.00 96 1014.5
20260903143114 61 0 0.0 1.0 0.00 0.00 0.00 96 1014.4
20260903141601 61 0 0.0 0.0 0.00 0.00 0.00 96 1014.4
20260903140111 61 0 0.0 0.0 0.00 0.00 0.00 96 1014.4
20260903134559 61 0 0.0 0.0 0.00 0.00 0.00 96 1014.3
20260903133106 60 0 0.0 0.0 0.00 0.00 0.00 96 1014.2
20260903131556 60 0 0.0 0.0 0.00 0.00 0.00 95 1014.3
20260903130100 60 0 0.0 0.0 0.00 0.00 0.00 95 1014.4
20260903124603 60 0 0.0 0.0 0.00 0.00 0.00 94 1014.5
20260903123056 60 0 0.0 0.0 0.00 0.00 0.00 93 1014.7
20260903121553 61 0 0.0 0.0 0.00 0.00 0.00 93 1015.0
20260903120107 61 0 0.0 0.0 0.00 0.00 0.00 92 1014.9
20260903114557 61 0 0.0 1.0 0.00 0.00 0.00 91 1014.9
20260903113102 61 0 0.0 1.0 0.00 0.00 0.00 90 1015.0
20260903111557 60 0 0.0 0.0 0.00 0.00 0.00 90 1015.1
20260903104558 60 0 0.0 1.0 0.00 0.00 0.00 90 1015.3
20260903103056 60 0 0.0 1.0 0.00 0.00 0.00 90 1015.3
20260903101603 60 0 0.0 1.0 0.00 0.00 0.00 91 1015.3
20260903094604 59 0 0.0 1.0 0.00 0.00 0.00 92 1015.6
20260903093119 59 0 0.0 1.0 0.00 0.00 0.00 92 1015.7
20260903091559 59 0 0.0 1.0 0.00 0.00 0.00 92 1016.1
20260903084603 58 0 0.0 0.0 0.00 0.00 0.00 91 1016.2
20260903083113 58 0 0.0 0.0 0.00 0.00 0.00 91 1016.3
20260903081617 58 0 0.0 0.0 0.00 0.00 0.00 91 1016.4
20260903080119 59 0 0.0 0.0 0.00 0.00 0.00 90 1016.3
20260903074628 59 0 0.0 1.0 0.00 0.00 0.00 90 1016.3
20260903073111 59 0 0.0 1.0 0.00 0.00 0.00 90 1016.5
20260903071610 59 0 0.0 1.0 0.00 0.00 0.00 90 1016.5
20260903070113 59 0 0.0 0.0 0.00 0.00 0.00 90 1016.6
20260903064601 58 0 0.0 0.0 0.00 0.00 0.00 90 1016.7
20260903063104 58 0 0.0 1.0 0.00 0.00 0.00 89 1016.8
20260903061606 58 0 0.0 1.0 0.00 0.00 0.00 89 1016.7
20260903060108 58 0 0.0 1.0 0.00 0.00 0.00 88 1016.8
20260903054600 59 0 0.0 1.0 0.00 0.00 0.00 88 1016.8
20260903053056 58 0 0.0 1.0 0.00 0.00 0.00 89 1017.0
20260903051555 58 0 0.0 1.0 0.00 0.00 0.00 89 1017.0
20260903050100 58 0 0.0 0.0 0.00 0.00 0.00 88 1017.1
20260903044559 58 0 0.0 0.0 0.00 0.00 0.00 87 1017.1
20260903043103 59 0 0.0 0.0 0.00 0.00 0.00 86 1017.0
20260903041558 60 0 0.0 0.0 0.00 0.00 0.00 85 1017.1
20260903040057 60 0 0.0 0.0 0.00 0.00 0.00 84 1017.1
20260903034605 61 0 0.0 0.0 0.00 0.00 0.00 83 1016.8
20260903033114 62 0 0.0 0.0 0.00 0.00 0.00 81 1016.8
20260903031633 62 0 0.0 1.0 0.00 0.00 0.00 80 1016.6
20260903030100 63 240 0.0 2.0 0.00 0.00 0.00 79 1016.3
20260903024601 64 0 0.0 3.0 0.00 0.00 0.00 77 1016.4
20260903023059 65 226 0.0 4.0 0.00 0.00 0.00 75 1016.4
20260903021555 67 0 1.0 4.0 0.00 0.00 0.00 72 1016.4
20260903020054 69 200 0.0 4.0 0.00 0.00 0.00 67 1016.4
20260903014600 71 239 1.0 3.0 0.00 0.00 0.00 64 1016.4
20260903013057 72 246 1.0 4.0 0.00 0.00 0.00 63 1016.3
20260903011601 72 242 1.0 4.0 0.00 0.00 0.00 62 1016.4
20260903010100 73 0 1.0 5.0 0.00 0.00 0.00 61 1016.3
20260903004603 73 297 1.0 5.0 0.00 0.00 0.00 61 1016.3
20260903003102 73 246 1.0 4.0 0.00 0.00 0.00 59 1016.2
20260903001600 73 260 0.0 6.0 0.00 0.00 0.00 58 1016.2
20260903000056 73 282 1.0 4.0 0.00 0.00 0.00 60 1016.3
20260902234607 73 217 0.0 4.0 0.00 0.00 0.00 60 1016.5
20260902233105 73 277 1.0 11.0 0.00 0.00 0.00 61 1016.4
20260902231606 74 0 1.0 4.0 0.00 0.00 0.00 58 1016.6
20260902230103 73 0 1.0 4.0 0.00 0.00 0.00 62 1016.6
20260902224607 74 252 2.0 5.0 0.00 0.00 0.00 60 1016.8
20260902223059 73 0 0.0 5.0 0.00 0.00 0.00 63 1016.7
20260902221557 73 259 0.0 4.0 0.00 0.00 0.00 63 1016.8
20260902214601 73 237 0.0 2.0 0.00 0.00 0.00 62 1017.0
20260902213104 75 0 0.0 2.0 0.00 0.00 0.00 61 1017.0
20260902211558 74 260 0.0 3.0 0.00 0.00 0.00 62 1017.0
20260902210056 73 250 1.0 4.0 0.00 0.00 0.00 64 1017.1
20260902204602 73 0 0.0 3.0 0.00 0.00 0.00 65 1017.2
20260902203113 73 257 0.0 4.0 0.00 0.00 0.00 65 1017.4
20260902201608 72 0 0.0 4.0 0.00 0.00 0.00 65 1017.4
20260902200100 72 277 1.0 3.0 0.00 0.00 0.00 66 1017.5
20260902194600 71 0 0.0 3.0 0.00 0.00 0.00 67 1017.6
20260902193058 72 245 0.0 1.0 0.00 0.00 0.00 71 1017.7
20260902191601 70 0 0.0 1.0 0.00 0.00 0.00 74 1017.8
20260902190057 67 0 1.0 7.0 0.00 0.00 0.00 79 1017.9
20260902184601 65 0 0.0 0.0 0.00 0.00 0.00 84 1018.0
20260902183111 65 0 0.0 0.0 0.00 0.00 0.00 86 1017.7
20260902181554 64 0 0.0 0.0 0.00 0.00 0.00 95 1017.8
20260902174604 63 0 0.0 0.0 0.00 0.00 0.00 95 1017.7
20260902173056 63 0 0.0 0.0 0.00 0.00 0.00 97 1017.5
20260902171605 62 0 0.0 0.0 0.00 0.00 0.00 97 1017.4
20260902164558 61 0 0.0 0.0 0.00 0.00 0.00 96 1017.1
20260902163119 61 0 0.0 0.0 0.00 0.00 0.00 97 1017.0
20260902161602 61 0 0.0 0.0 0.00 0.00 0.00 97 1016.8
20260902160100 60 0 0.0 0.0 0.00 0.00 0.00 97 1017.0
20260902154557 60 0 0.0 0.0 0.00 0.00 0.00 97 1017.1
20260902153104 60 0 0.0 1.0 0.00 0.00 0.00 96 1017.1
20260902151557 60 53 0.0 1.0 0.00 0.00 0.00 96 1016.9
20260902150101 60 0 0.0 1.0 0.00 0.00 0.00 96 1016.8